Date,TemperatureHighF,TemperatureAvgF,TemperatureLowF,DewpointHighF,DewpointAvgF,DewpointLowF,HumidityHigh,HumidityAvg,HumidityLow,PressureMaxIn,PressureMinIn,WindSpeedMaxMPH,WindSpeedAvgMPH,GustSpeedMaxMPH,PrecipitationSumIn
2013-9-1,94,85,74,58,49,39,52,31,16,29.74,29.64,23,8,28,0.00
2013-9-2,89,81,72,55,50,44,49,36,25,29.82,29.69,29,11,39,0.00
2013-9-3,87,80,73,55,50,40,52,37,22,29.89,29.75,19,7,28,0.00
2013-9-4,86,81,72,52,46,39,43,30,19,29.92,29.81,22,11,29,0.00
2013-9-5,88,82,76,50,43,37,40,26,17,29.93,29.82,21,10,27,0.00
2013-9-6,86,81,74,55,50,39,46,35,23,29.92,29.75,23,8,32,0.01
2013-9-7,87,79,73,55,48,-100,48,35,23,29.85,29.70,22,11,27,0.01
2013-9-8,85,79,72,53,50,46,51,36,26,29.78,29.60,25,13,36,0.00
2013-9-9,84,75,65,62,54,49,89,51,33,29.71,29.57,35,12,44,0.01
2013-9-10,70,65,62,64,62,59,97,89,75,29.90,29.71,20,8,26,0.30
2013-9-11,74,67,63,65,63,60,97,88,68,29.94,29.86,19,6,31,0.52
2013-9-12,69,66,62,65,62,59,96,88,72,29.92,29.85,17,6,26,0.26
2013-9-13,70,66,62,63,60,55,96,83,59,29.89,29.78,23,8,31,0.41
2013-9-14,77,71,64,61,54,-100,79,58,42,29.83,29.72,18,8,27,0.02
2013-9-15,81,74,65,60,56,52,67,54,42,29.83,29.76,21,9,29,0.01
2013-9-16,78,70,61,61,57,52,92,66,47,29.95,29.83,24,12,32,0.31
2013-9-17,77,72,66,61,58,56,76,61,50,29.91,29.74,18,7,25,0.31
2013-9-18,76,70,66,58,57,56,76,64,51,29.79,29.70,23,16,30,0.00
2013-9-19,82,72,65,62,59,55,83,66,42,29.76,29.64,33,8,39,0.12
2013-9-20,78,70,62,62,58,53,89,68,43,29.88,29.75,19,9,26,0.02
2013-9-21,74,66,60,59,54,-100,88,68,51,29.94,29.79,18,10,24,0.00
2013-9-22,78,71,63,54,51,49,68,51,37,29.81,29.54,23,15,31,0.00
2013-9-23,76,70,63,53,41,32,55,37,20,29.80,29.60,14,7,26,0.00
2013-9-24,80,71,57,39,36,34,46,29,20,29.98,29.83,21,9,25,0.00
2013-9-25,84,78,66,47,43,36,36,30,26,29.76,29.57,24,12,31,0.00
2013-9-26,82,75,68,45,40,34,40,29,23,29.70,29.58,22,12,27,0.00
2013-9-27,78,71,62,54,46,39,60,42,25,29.78,29.57,36,16,49,0.00
2013-9-28,73,61,52,39,23,-100,44,26,9,30.08,29.78,19,9,27,0.00
2013-9-29,78,73,63,33,31,27,31,22,18,30.09,29.90,11,4,17,0.00
2013-9-30,83,74,61,42,33,21,39,23,11,29.89,29.73,16,8,22,0.00